Weather in Solotvin

Ukraine / Ivano-Frankovsk District     48°42′19″N   24°25′22″E
temp.,
°C
wind,
m/s
gust,
m/s
humid.,
%
clouds,
%
prec.,
mm/h
press.,
hPa
HPBL,
m
16 september, thu
thu1600:00+14ssw228588 0.0 101813
03:00+14ssw2282100 0.0 101715
06:00+13ssw228033 0.0 101716
09:00+17sse126899 0.0 1016109
12:00+24se2350100 0.0 1015589
15:00+26e1340100 0.0 10142130
18:00+24ssw1257100 0.0 101356
21:00+19ssw3364100 0.0 101431
17 september, fri
fri1700:00+18ssw2268100 0.1 101333
03:00+16s228632 1.0 101225
06:00+15sw2287100 0.2 101026
09:00+18sw127988 0.2 1010100
12:00+20se1269100 0.3 1008661
15:00+16sse249799 11.4 1008226
18:00+18s138487 0.6 1005217
21:00+13wnw61392100 1.8 1008724
18 september, sat
sat1800:00+13nw61289100 1.1 1009785
03:00+13wnw4108397 1.2 1009469
06:00+11nw488978 0.0 1010232
09:00+14nw47744 0.0 1010631
12:00+17nw795360 0.0 10101608
15:00+18nw685065 0.1 10101445
18:00+16nw466199 0.0 1010662
21:00+12nw127771 0.2 101141
19 september, sun
sun1900:00+11sse1289100 0.4 101160
03:00+10ssw229387 0.8 101016
06:00+8n3498100 0.5 1011223
09:00+6nnw4796100 2.2 1013436
12:00+6nnw2695100 2.3 1014514
15:00+7nw2690100 3.0 1014546
18:00+7nw2590100 0.4 1014533
21:00+6nw4890100 0.7 1014667
20 september, mon
mon2000:00+6nw3789100 0.1 1014730
03:00+7wnw3887100 0.1 1013671
06:00+7wnw3886100 0.1 1013653
09:00+7nw41087100 0.2 1014843
12:00+7nw4987100 0.1 1015972
15:00+7nw5986100 0.1 1016870
18:00+6nnw61089100 0.0 1017881
21:00+6nw51090100 0.1 10191110